Lid_Strength_Index
-1 -1 0 -0 -0 -0 -0 0 2 4 3 1 1 -1 -1 -1 -1 -2 -2 -0 0 1 2 2 2 2 2 2 1 1 1 1 -0 0 1 -1 -1 -0
-0 -0 -0 -0 -0 -0 -0 0 0 2 4 1 1 -1 -1 -1 -1 -2 -2 1 1 2 2 2 2 2 2 1 0 1 1 0 -0 0 0 0 0 0
-0 -0 -0 -1 0 -0 -0 -0 1 1 3 1 0 -1 -0 -1 -1 -2 -1 -2 -1 1 1 2 2 2 2 1 1 2 1 -0 -1 -0 1 1 0 1
0 -0 0 0 -0 -0 0 0 0 0 1 2 1 1 0 -1 -1 -1 -1 -1 -1 -0 1 1 1 2 3 2 3 4 3 1 0 1 1 1 1 0
-0 0 0 -0 0 0 0 0 0 0 0 1 2 0 0 -0 0 -1 -1 -1 -1 -1 0 2 2 2 2 2 4 5 4 3 3 3 2 2 1 1
-0 -0 -0 -0 0 -0 0 0 0 1 1 2 2 2 1 -0 0 1 2 0 1 -1 -1 2 1 2 3 3 3 4 4 5 5 5 4 4 3 3
-0 -0 -0 -0 1 1 0 0 0 1 1 2 2 2 2 1 2 1 1 1 0 -0 -0 -0 -0 -0 1 3 1 4 4 4 5 5 5 5 5 4
0 -0 -0 0 1 2 2 2 1 1 1 2 2 2 2 1 1 1 1 2 3 -1 0 1 -1 0 -1 -1 3 5 4 4 4 5 5 5 5 4
0 0 0 -0 0 -0 2 4 3 4 3 1 2 2 2 1 1 1 1 2 2 1 0 2 -1 0 -0 -0 4 5 6 4 4 4 5 5 5 5
-0 -0 0 -0 -0 -0 -0 0 0 -0 -0 -0 0 0 -0 -0 0 0 1 1 1 0 -1 3 -0 1 -0 -1 4 5 6 5 4 5 5 6 6 7
0 -0 0 0 4 6 0 1 0 0 1 2 2 3 3 3 2 0 2 2 3 2 0 1 1 1 0 0 1 6 6 6 5 5 5 6 7 8
0 -0 5 2 8 7 1 1 1 1 0 -0 -0 0 1 -0 4 0 1 2 3 3 1 2 2 1 3 3 1 2 3 7 7 7 7 8 9 4
1 1 0 7 7 8 7 0 1 0 1 0 0 0 0 -0 0 -0 -0 1 2 3 1 1 2 2 2 3 2 1 2 4 3 5 9 10 9 7
1 1 2 7 7 8 6 6 7 5 0 1 1 1 1 1 0 -0 -0 -0 -0 1 0 0 2 2 2 3 3 1 1 1 2 2 3 8 10 9
0 2 6 8 8 6 7 6 7 0 1 1 2 2 1 0 -0 -0 -1 -1 0 1 0 0 1 1 2 3 3 2 2 1 1 2 3 5 7 6
3 2 3 6 7 3 3 3 0 0 1 1 1 1 0 0 1 0 1 1 2 1 -0 1 2 2 2 2 2 2 2 3 1 2 3 4 5 5
2 0 2 3 2 2 1 1 2 0 1 -0 0 0 0 0 1 -0 0 1 2 2 1 1 -1 -1 0 2 3 2 3 3 3 3 4 4 4 4
3 2 2 2 2 2 2 1 1 2 -0 -0 0 0 1 1 1 0 0 1 2 1 2 1 1 2 1 0 2 2 1 2 2 3 3 5 5 4
4 2 2 2 2 2 2 2 1 1 1 1 1 1 1 1 1 1 1 1 2 2 1 1 1 2 4 5 1 7 3 1 1 3 3 4 5 4
1 2 2 2 2 3 3 2 1 1 1 1 1 1 2 1 1 1 1 1 1 1 1 1 2 2 3 4 3 2 10 6 3 4 4 6 9 8
1 1 1 2 3 3 2 2 2 2 3 3 3 4 4 4 3 3 1 5 4 1 2 2 1 2 -0 0 3 2 5 9 8 6 7 8 9 9
1 1 1 1 1 2 2 2 2 5 4 5 4 4 4 4 3 3 2 2 3 3 2 2 0 -0 1 2 3 2 2 6 8 9 9 8 8 10
1 0 0 0 0 1 1 2 2 3 3 2 3 2 2 2 2 2 2 2 3 3 3 4 3 2 2 1 3 2 2 4 6 7 8 8 8 8